Time,TemperatureF,DewpointF,PressureIn,WindDirection,WindDirectionDegrees,WindSpeedMPH,WindSpeedGustMPH,Humidity,HourlyPrecipIn,Conditions,Clouds,dailyrainin,SoftwareType,DateUTC
2013-06-19 00:02:00,67.7,65.6,29.99,SW,224,0.0,3.0,93,0.23,,,0.00,Wunderground v.1.15,2013-06-19 05:02:00,
2013-06-19 00:08:00,67.5,65.7,29.99,WNW,302,0.0,3.0,94,0.08,,,0.00,Wunderground v.1.15,2013-06-19 05:08:00,
2013-06-19 00:14:00,67.4,65.6,29.98,WNW,286,1.0,2.0,94,0.08,,,0.01,Wunderground v.1.15,2013-06-19 05:14:00,
2013-06-19 00:19:00,67.2,65.4,29.98,WSW,249,1.0,2.0,94,0.07,,,0.02,Wunderground v.1.15,2013-06-19 05:19:00,
2013-06-19 00:24:00,67.4,65.3,29.97,SW,225,3.0,3.0,93,0.10,,,0.03,Wunderground v.1.15,2013-06-19 05:24:00,
2013-06-19 00:30:00,67.4,64.7,29.96,SW,232,2.0,3.0,91,0.27,,,0.06,Wunderground v.1.15,2013-06-19 05:30:00,
2013-06-19 00:36:00,67.4,65.0,29.95,SW,224,2.0,3.0,92,0.09,,,0.07,Wunderground v.1.15,2013-06-19 05:36:00,
2013-06-19 00:42:00,67.1,64.7,29.95,SW,219,1.0,2.0,92,0.08,,,0.07,Wunderground v.1.15,2013-06-19 05:42:00,
2013-06-19 00:48:00,67.0,64.6,29.94,SW,232,2.0,3.0,92,0.04,,,0.07,Wunderground v.1.15,2013-06-19 05:48:00,
2013-06-19 00:54:00,67.1,64.7,29.94,WSW,242,2.0,2.0,92,0.00,,,0.07,Wunderground v.1.15,2013-06-19 05:54:00,
2013-06-19 01:00:00,67.2,64.5,29.94,SW,231,1.0,1.0,91,0.00,,,0.07,Wunderground v.1.15,2013-06-19 06:00:00,
2013-06-19 01:06:00,67.1,64.7,29.94,NW,316,3.0,3.0,92,0.00,,,0.07,Wunderground v.1.15,2013-06-19 06:06:00,
2013-06-19 01:11:00,67.0,64.9,29.94,WNW,283,1.0,2.0,93,0.00,,,0.07,Wunderground v.1.15,2013-06-19 06:11:00,
2013-06-19 01:17:00,66.9,64.8,29.94,WNW,284,1.0,2.0,93,0.00,,,0.07,Wunderground v.1.15,2013-06-19 06:17:00,
2013-06-19 01:23:00,67.0,64.6,29.94,WNW,297,2.0,3.0,92,0.00,,,0.07,Wunderground v.1.15,2013-06-19 06:23:00,
2013-06-19 01:29:00,67.3,64.9,29.94,WNW,288,1.0,3.0,92,0.00,,,0.07,Wunderground v.1.15,2013-06-19 06:29:00,
2013-06-19 01:34:00,67.4,64.7,29.94,WNW,297,0.0,3.0,91,0.00,,,0.07,Wunderground v.1.15,2013-06-19 06:34:00,
2013-06-19 01:40:00,67.5,64.8,29.95,WNW,290,0.0,1.0,91,0.00,,,0.07,Wunderground v.1.15,2013-06-19 06:40:00,
2013-06-19 01:46:00,67.3,64.9,29.95,SSE,148,0.0,1.0,92,0.00,,,0.07,Wunderground v.1.15,2013-06-19 06:46:00,
2013-06-19 01:52:00,67.0,64.6,29.95,SSE,148,0.0,0.0,92,0.00,,,0.07,Wunderground v.1.15,2013-06-19 06:52:00,
2013-06-19 01:58:00,67.0,64.6,29.95,WSW,240,0.0,1.0,92,0.00,,,0.07,Wunderground v.1.15,2013-06-19 06:58:00,
2013-06-19 02:03:00,67.0,64.9,29.95,WSW,240,0.0,1.0,93,0.00,,,0.07,Wunderground v.1.15,2013-06-19 07:03:00,
2013-06-19 02:07:00,66.8,64.7,29.95,SW,228,0.0,2.0,93,0.00,,,0.07,Wunderground v.1.15,2013-06-19 07:07:00,
2013-06-19 02:13:00,66.7,64.9,29.95,SW,218,0.0,2.0,94,0.00,,,0.07,Wunderground v.1.15,2013-06-19 07:13:00,
2013-06-19 02:18:00,66.6,64.8,29.95,WSW,239,1.0,3.0,94,0.00,,,0.07,Wunderground v.1.15,2013-06-19 07:18:00,
2013-06-19 02:23:00,66.6,64.8,29.95,WSW,248,1.0,1.0,94,0.00,,,0.07,Wunderground v.1.15,2013-06-19 07:23:00,
2013-06-19 02:28:00,66.6,64.8,29.95,West,262,1.0,2.0,94,0.00,,,0.07,Wunderground v.1.15,2013-06-19 07:28:00,
2013-06-19 02:33:00,66.6,64.8,29.95,WNW,298,1.0,2.0,94,0.00,,,0.07,Wunderground v.1.15,2013-06-19 07:33:00,
2013-06-19 02:38:00,66.6,64.8,29.94,WNW,300,2.0,2.0,94,0.00,,,0.07,Wunderground v.1.15,2013-06-19 07:38:00,
2013-06-19 02:43:00,66.8,64.7,29.94,WNW,288,2.0,4.0,93,0.00,,,0.07,Wunderground v.1.15,2013-06-19 07:43:00,
2013-06-19 02:47:00,66.9,64.5,29.94,SW,236,2.0,4.0,92,0.00,,,0.07,Wunderground v.1.15,2013-06-19 07:47:00,
2013-06-19 02:53:00,67.0,64.3,29.94,West,280,1.0,3.0,91,0.00,,,0.07,Wunderground v.1.15,2013-06-19 07:53:00,
2013-06-19 02:58:00,67.0,64.3,29.94,WSW,255,1.0,3.0,91,0.00,,,0.07,Wunderground v.1.15,2013-06-19 07:58:00,
2013-06-19 03:03:00,66.8,64.4,29.94,West,259,0.0,2.0,92,0.00,,,0.07,Wunderground v.1.15,2013-06-19 08:03:00,
2013-06-19 03:08:00,66.7,64.3,29.94,WNW,291,2.0,3.0,92,0.00,,,0.07,Wunderground v.1.15,2013-06-19 08:08:00,
2013-06-19 03:13:00,66.6,64.5,29.94,NW,305,2.0,3.0,93,0.00,,,0.07,Wunderground v.1.15,2013-06-19 08:13:00,
2013-06-19 03:18:00,66.5,64.4,29.94,WNW,284,1.0,3.0,93,0.00,,,0.07,Wunderground v.1.15,2013-06-19 08:18:00,
2013-06-19 03:23:00,66.4,64.3,29.94,WNW,284,0.0,1.0,93,0.00,,,0.07,Wunderground v.1.15,2013-06-19 08:23:00,
2013-06-19 03:28:00,66.3,64.2,29.95,WNW,284,0.0,1.0,93,0.00,,,0.07,Wunderground v.1.15,2013-06-19 08:28:00,
2013-06-19 03:33:00,66.2,64.1,29.95,WNW,284,0.0,1.0,93,0.00,,,0.07,Wunderground v.1.15,2013-06-19 08:33:00,
2013-06-19 03:38:00,66.1,64.3,29.95,WNW,284,0.0,1.0,94,0.00,,,0.07,Wunderground v.1.15,2013-06-19 08:38:00,
2013-06-19 03:43:00,66.1,64.3,29.95,WNW,283,0.0,1.0,94,0.00,,,0.07,Wunderground v.1.15,2013-06-19 08:43:00,
2013-06-19 03:48:00,66.1,64.3,29.95,WSW,250,0.0,1.0,94,0.00,,,0.07,Wunderground v.1.15,2013-06-19 08:48:00,
2013-06-19 03:53:00,66.0,64.2,29.95,West,264,1.0,1.0,94,0.00,,,0.07,Wunderground v.1.15,2013-06-19 08:53:00,
2013-06-19 03:58:00,65.9,64.1,29.95,West,263,0.0,1.0,94,0.00,,,0.07,Wunderground v.1.15,2013-06-19 08:58:00,
2013-06-19 04:03:00,65.8,64.0,29.95,West,263,0.0,1.0,94,0.00,,,0.07,Wunderground v.1.15,2013-06-19 09:03:00,
2013-06-19 04:08:00,65.7,63.9,29.95,West,263,0.0,1.0,94,0.00,,,0.07,Wunderground v.1.15,2013-06-19 09:08:00,
2013-06-19 04:13:00,65.6,63.8,29.95,West,263,1.0,1.0,94,0.00,,,0.07,Wunderground v.1.15,2013-06-19 09:13:00,
2013-06-19 04:18:00,65.4,63.9,29.95,West,277,1.0,1.0,95,0.00,,,0.07,Wunderground v.1.15,2013-06-19 09:18:00,
2013-06-19 04:23:00,65.3,63.8,29.95,West,277,0.0,1.0,95,0.00,,,0.07,Wunderground v.1.15,2013-06-19 09:23:00,
2013-06-19 04:28:00,65.1,63.6,29.95,West,277,0.0,1.0,95,0.00,,,0.07,Wunderground v.1.15,2013-06-19 09:28:00,
2013-06-19 04:33:00,65.1,63.6,29.95,West,276,0.0,0.0,95,0.00,,,0.07,Wunderground v.1.15,2013-06-19 09:33:00,
2013-06-19 04:38:00,65.1,63.9,29.95,West,277,0.0,1.0,96,0.00,,,0.07,Wunderground v.1.15,2013-06-19 09:38:00,
2013-06-19 04:43:00,65.1,63.9,29.96,ESE,109,1.0,2.0,96,0.00,,,0.07,Wunderground v.1.15,2013-06-19 09:43:00,
2013-06-19 04:48:00,65.1,63.9,29.96,ESE,109,2.0,3.0,96,0.00,,,0.07,Wunderground v.1.15,2013-06-19 09:48:00,
2013-06-19 04:53:00,65.1,63.9,29.96,East,92,0.0,2.0,96,0.00,,,0.07,Wunderground v.1.15,2013-06-19 09:53:00,
2013-06-19 04:58:00,65.0,63.8,29.97,ESE,110,2.0,2.0,96,0.00,,,0.07,Wunderground v.1.15,2013-06-19 09:58:00,
2013-06-19 05:03:00,65.2,64.0,29.97,ESE,114,0.0,3.0,96,0.00,,,0.07,Wunderground v.1.15,2013-06-19 10:03:00,
2013-06-19 05:08:00,65.2,63.7,29.97,West,271,0.0,3.0,95,0.00,,,0.07,Wunderground v.1.15,2013-06-19 10:08:00,
2013-06-19 05:13:00,65.3,64.1,29.97,ENE,58,1.0,3.0,96,0.00,,,0.07,Wunderground v.1.15,2013-06-19 10:13:00,
2013-06-19 05:18:00,65.5,64.0,29.97,East,101,1.0,3.0,95,0.00,,,0.07,Wunderground v.1.15,2013-06-19 10:18:00,
2013-06-19 05:23:00,65.6,64.1,29.97,ESE,112,0.0,2.0,95,0.00,,,0.07,Wunderground v.1.15,2013-06-19 10:23:00,
2013-06-19 05:28:00,65.6,63.8,29.97,East,92,2.0,2.0,94,0.00,,,0.07,Wunderground v.1.15,2013-06-19 10:28:00,
2013-06-19 05:33:00,65.6,63.8,29.98,ENE,59,2.0,2.0,94,0.00,,,0.07,Wunderground v.1.15,2013-06-19 10:33:00,
2013-06-19 05:38:00,65.4,63.9,29.97,NE,51,0.0,3.0,95,0.00,,,0.07,Wunderground v.1.15,2013-06-19 10:38:00,
2013-06-19 05:43:00,65.4,63.9,29.97,NE,51,0.0,1.0,95,0.00,,,0.07,Wunderground v.1.15,2013-06-19 10:43:00,
2013-06-19 05:48:00,65.3,63.8,29.98,ENE,60,1.0,2.0,95,0.00,,,0.07,Wunderground v.1.15,2013-06-19 10:48:00,
2013-06-19 05:53:00,65.2,63.7,29.98,ENE,60,0.0,1.0,95,0.00,,,0.07,Wunderground v.1.15,2013-06-19 10:53:00,
2013-06-19 05:58:00,65.2,63.7,29.98,ENE,67,0.0,1.0,95,0.00,,,0.07,Wunderground v.1.15,2013-06-19 10:58:00,
2013-06-19 06:03:00,65.3,64.1,29.98,ENE,67,0.0,0.0,96,0.00,,,0.07,Wunderground v.1.15,2013-06-19 11:03:00,
2013-06-19 06:08:00,65.3,64.1,29.98,ESE,109,1.0,2.0,96,0.00,,,0.07,Wunderground v.1.15,2013-06-19 11:08:00,
2013-06-19 06:13:00,65.4,64.2,29.98,ESE,120,0.0,1.0,96,0.00,,,0.07,Wunderground v.1.15,2013-06-19 11:13:00,
2013-06-19 06:18:00,65.5,64.3,29.98,East,91,1.0,2.0,96,0.00,,,0.07,Wunderground v.1.15,2013-06-19 11:18:00,
2013-06-19 06:23:00,65.7,64.5,29.98,East,98,1.0,2.0,96,0.00,,,0.07,Wunderground v.1.15,2013-06-19 11:23:00,
2013-06-19 06:28:00,65.8,64.6,29.99,East,96,0.0,2.0,96,0.00,,,0.07,Wunderground v.1.15,2013-06-19 11:28:00,
2013-06-19 06:33:00,66.2,65.0,29.99,East,92,1.0,2.0,96,0.00,,,0.07,Wunderground v.1.15,2013-06-19 11:33:00,
2013-06-19 06:38:00,66.8,65.6,29.99,East,86,1.0,2.0,96,0.00,,,0.07,Wunderground v.1.15,2013-06-19 11:38:00,
2013-06-19 06:43:00,67.3,65.5,29.99,East,86,0.0,2.0,94,0.00,,,0.07,Wunderground v.1.15,2013-06-19 11:43:00,
2013-06-19 06:48:00,67.8,65.7,29.99,NE,43,2.0,2.0,93,0.00,,,0.07,Wunderground v.1.15,2013-06-19 11:48:00,
2013-06-19 06:53:00,68.1,65.7,29.99,ESE,120,1.0,3.0,92,0.00,,,0.07,Wunderground v.1.15,2013-06-19 11:53:00,
2013-06-19 06:58:00,68.5,65.8,30.00,East,96,1.0,3.0,91,0.00,,,0.07,Wunderground v.1.15,2013-06-19 11:58:00,
2013-06-19 07:03:00,68.7,66.0,30.00,ESE,120,2.0,2.0,91,0.00,,,0.07,Wunderground v.1.15,2013-06-19 12:03:00,
2013-06-19 07:08:00,69.0,66.3,30.00,East,98,2.0,4.0,91,0.00,,,0.07,Wunderground v.1.15,2013-06-19 12:08:00,
2013-06-19 07:13:00,69.2,66.5,30.00,East,101,2.0,3.0,91,0.00,,,0.07,Wunderground v.1.15,2013-06-19 12:13:00,
2013-06-19 07:18:00,69.7,66.6,29.99,ESE,104,0.0,4.0,90,0.00,,,0.07,Wunderground v.1.15,2013-06-19 12:18:00,
2013-06-19 07:23:00,69.9,66.8,29.99,East,97,0.0,3.0,90,0.00,,,0.07,Wunderground v.1.15,2013-06-19 12:23:00,
2013-06-19 07:28:00,70.2,66.8,29.99,East,84,0.0,3.0,89,0.00,,,0.07,Wunderground v.1.15,2013-06-19 12:28:00,
2013-06-19 07:33:00,70.4,66.7,29.99,ENE,63,3.0,3.0,88,0.00,,,0.07,Wunderground v.1.15,2013-06-19 12:33:00,
2013-06-19 07:38:00,70.6,66.9,30.00,SE,129,1.0,4.0,88,0.00,,,0.07,Wunderground v.1.15,2013-06-19 12:38:00,
2013-06-19 07:43:00,71.0,67.3,30.00,ENE,77,0.0,4.0,88,0.00,,,0.07,Wunderground v.1.15,2013-06-19 12:43:00,
2013-06-19 07:48:00,71.3,67.2,30.00,ESE,117,1.0,6.0,87,0.00,,,0.07,Wunderground v.1.15,2013-06-19 12:48:00,
2013-06-19 07:53:00,71.6,67.2,30.01,East,94,1.0,2.0,86,0.00,,,0.07,Wunderground v.1.15,2013-06-19 12:53:00,
2013-06-19 07:58:00,71.9,67.1,30.01,East,97,1.0,3.0,85,0.00,,,0.07,Wunderground v.1.15,2013-06-19 12:58:00,
2013-06-19 08:03:00,72.2,67.4,30.01,ENE,73,2.0,4.0,85,0.00,,,0.07,Wunderground v.1.15,2013-06-19 13:03:00,
2013-06-19 08:08:00,72.4,67.3,30.01,ESE,105,2.0,4.0,84,0.00,,,0.07,Wunderground v.1.15,2013-06-19 13:08:00,
2013-06-19 08:13:00,72.6,67.5,30.01,NE,44,2.0,5.0,84,0.00,,,0.07,Wunderground v.1.15,2013-06-19 13:13:00,
2013-06-19 08:18:00,72.7,67.6,30.01,ESE,103,3.0,5.0,84,0.00,,,0.07,Wunderground v.1.15,2013-06-19 13:18:00,
2013-06-19 08:23:00,73.0,67.5,30.01,SE,128,0.0,4.0,83,0.00,,,0.07,Wunderground v.1.15,2013-06-19 13:23:00,
2013-06-19 08:28:00,73.6,67.8,30.02,ENE,61,2.0,4.0,82,0.00,,,0.07,Wunderground v.1.15,2013-06-19 13:28:00,
2013-06-19 08:33:00,73.2,67.4,30.02,NNE,26,4.0,6.0,82,0.00,,,0.07,Wunderground v.1.15,2013-06-19 13:33:00,
2013-06-19 08:38:00,73.5,67.7,30.02,East,96,0.0,6.0,82,0.00,,,0.07,Wunderground v.1.15,2013-06-19 13:38:00,
2013-06-19 08:43:00,74.1,67.9,30.02,SSE,162,2.0,3.0,81,0.00,,,0.07,Wunderground v.1.15,2013-06-19 13:43:00,
2013-06-19 08:48:00,74.4,68.2,30.02,NE,46,0.0,4.0,81,0.00,,,0.07,Wunderground v.1.15,2013-06-19 13:48:00,
2013-06-19 08:53:00,74.8,67.8,30.02,East,90,2.0,4.0,79,0.00,,,0.07,Wunderground v.1.15,2013-06-19 13:53:00,
2013-06-19 08:58:00,74.9,67.9,30.02,SE,128,1.0,4.0,79,0.00,,,0.07,Wunderground v.1.15,2013-06-19 13:58:00,
2013-06-19 09:03:00,75.4,68.8,30.02,SE,138,1.0,4.0,80,0.00,,,0.07,Wunderground v.1.15,2013-06-19 14:03:00,
2013-06-19 09:08:00,75.7,68.7,30.02,SW,219,0.0,4.0,79,0.00,,,0.07,Wunderground v.1.15,2013-06-19 14:08:00,
2013-06-19 09:13:00,76.3,68.9,30.02,SE,129,0.0,3.0,78,0.00,,,0.07,Wunderground v.1.15,2013-06-19 14:13:00,
2013-06-19 09:18:00,76.2,68.5,30.03,NE,49,1.0,5.0,77,0.00,,,0.07,Wunderground v.1.15,2013-06-19 14:18:00,
2013-06-19 09:23:00,76.4,68.3,30.03,ENE,58,2.0,4.0,76,0.00,,,0.07,Wunderground v.1.15,2013-06-19 14:23:00,
2013-06-19 09:28:00,76.3,67.8,30.03,NE,43,0.0,4.0,75,0.00,,,0.07,Wunderground v.1.15,2013-06-19 14:28:00,
2013-06-19 09:33:00,76.5,68.4,30.02,NE,43,5.0,5.0,76,0.00,,,0.07,Wunderground v.1.15,2013-06-19 14:33:00,
2013-06-19 09:38:00,76.8,69.0,30.03,East,92,1.0,6.0,77,0.00,,,0.07,Wunderground v.1.15,2013-06-19 14:38:00,
2013-06-19 09:43:00,77.0,68.5,30.03,ESE,107,0.0,4.0,75,0.00,,,0.07,Wunderground v.1.15,2013-06-19 14:43:00,
2013-06-19 09:48:00,77.0,68.5,30.03,NE,46,4.0,8.0,75,0.00,,,0.07,Wunderground v.1.15,2013-06-19 14:48:00,
2013-06-19 09:53:00,76.8,68.7,30.03,SE,124,0.0,6.0,76,0.00,,,0.07,Wunderground v.1.15,2013-06-19 14:53:00,
2013-06-19 09:58:00,77.2,68.7,30.03,NNE,19,1.0,6.0,75,0.00,,,0.07,Wunderground v.1.15,2013-06-19 14:58:00,
2013-06-19 10:03:00,77.4,69.2,30.03,NE,43,5.0,5.0,76,0.00,,,0.07,Wunderground v.1.15,2013-06-19 15:03:00,
2013-06-19 10:08:00,77.5,68.9,30.03,SE,131,3.0,5.0,75,0.00,,,0.07,Wunderground v.1.15,2013-06-19 15:08:00,
2013-06-19 10:13:00,78.0,69.4,30.03,North,354,3.0,7.0,75,0.00,,,0.07,Wunderground v.1.15,2013-06-19 15:13:00,
2013-06-19 10:18:00,77.9,68.9,30.03,NE,42,1.0,7.0,74,0.00,,,0.07,Wunderground v.1.15,2013-06-19 15:18:00,
2013-06-19 10:23:00,78.2,69.6,30.03,ESE,106,2.0,7.0,75,0.00,,,0.07,Wunderground v.1.15,2013-06-19 15:23:00,
2013-06-19 10:28:00,78.5,69.9,30.03,ENE,66,2.0,7.0,75,0.00,,,0.07,Wunderground v.1.15,2013-06-19 15:28:00,
2013-06-19 10:33:00,78.5,69.5,30.03,NNW,342,0.0,6.0,74,0.00,,,0.07,Wunderground v.1.15,2013-06-19 15:33:00,
2013-06-19 10:38:00,78.6,70.4,30.03,NE,46,4.0,6.0,76,0.00,,,0.07,Wunderground v.1.15,2013-06-19 15:38:00,
2013-06-19 10:43:00,78.9,69.9,30.03,NE,49,0.0,6.0,74,0.00,,,0.07,Wunderground v.1.15,2013-06-19 15:43:00,
2013-06-19 10:48:00,79.2,70.6,30.03,ESE,121,1.0,6.0,75,0.00,,,0.07,Wunderground v.1.15,2013-06-19 15:48:00,
2013-06-19 10:53:00,79.4,70.0,30.03,ESE,107,2.0,7.0,73,0.00,,,0.07,Wunderground v.1.15,2013-06-19 15:53:00,
2013-06-19 10:58:00,79.8,70.4,30.03,NNW,347,3.0,7.0,73,0.00,,,0.07,Wunderground v.1.15,2013-06-19 15:58:00,
2013-06-19 11:03:00,80.3,70.9,30.03,ESE,109,3.0,4.0,73,0.00,,,0.07,Wunderground v.1.15,2013-06-19 16:03:00,
2013-06-19 11:08:00,80.3,70.4,30.03,NNE,27,2.0,4.0,72,0.00,,,0.07,Wunderground v.1.15,2013-06-19 16:08:00,
2013-06-19 11:13:00,80.3,70.9,30.03,East,86,4.0,6.0,73,0.00,,,0.07,Wunderground v.1.15,2013-06-19 16:13:00,
2013-06-19 11:18:00,80.3,69.6,30.03,SE,124,0.0,6.0,70,0.00,,,0.07,Wunderground v.1.15,2013-06-19 16:18:00,
2013-06-19 11:23:00,80.7,70.0,30.03,ENE,62,1.0,5.0,70,0.00,,,0.07,Wunderground v.1.15,2013-06-19 16:23:00,
2013-06-19 11:28:00,80.7,70.0,30.03,ESE,114,4.0,5.0,70,0.00,,,0.07,Wunderground v.1.15,2013-06-19 16:28:00,
2013-06-19 11:33:00,80.7,70.8,30.03,NE,56,2.0,4.0,72,0.00,,,0.07,Wunderground v.1.15,2013-06-19 16:33:00,
2013-06-19 11:38:00,81.1,70.8,30.03,NE,51,1.0,6.0,71,0.00,,,0.07,Wunderground v.1.15,2013-06-19 16:38:00,
2013-06-19 11:43:00,81.2,70.1,30.03,East,86,1.0,4.0,69,0.00,,,0.07,Wunderground v.1.15,2013-06-19 16:43:00,
2013-06-19 11:48:00,81.4,70.2,30.03,ESE,110,2.0,4.0,69,0.00,,,0.07,Wunderground v.1.15,2013-06-19 16:48:00,
2013-06-19 11:53:00,81.9,70.7,30.02,SE,131,0.0,2.0,69,0.00,,,0.07,Wunderground v.1.15,2013-06-19 16:53:00,
2013-06-19 11:58:00,82.7,70.2,30.02,ESE,102,2.0,5.0,66,0.00,,,0.07,Wunderground v.1.15,2013-06-19 16:58:00,
2013-06-19 12:03:00,82.2,70.6,30.02,NE,44,4.0,5.0,68,0.00,,,0.07,Wunderground v.1.15,2013-06-19 17:03:00,
2013-06-19 12:08:00,82.2,70.1,30.02,SE,132,2.0,5.0,67,0.00,,,0.07,Wunderground v.1.15,2013-06-19 17:08:00,
2013-06-19 12:13:00,82.7,70.6,30.02,East,82,3.0,6.0,67,0.00,,,0.07,Wunderground v.1.15,2013-06-19 17:13:00,
2013-06-19 12:18:00,82.7,71.5,30.02,East,82,1.0,6.0,69,0.00,,,0.07,Wunderground v.1.15,2013-06-19 17:18:00,
2013-06-19 12:23:00,83.1,71.0,30.02,SE,133,1.0,4.0,67,0.00,,,0.07,Wunderground v.1.15,2013-06-19 17:23:00,
2013-06-19 12:28:00,83.1,70.1,30.02,East,82,1.0,4.0,65,0.00,,,0.07,Wunderground v.1.15,2013-06-19 17:28:00,
2013-06-19 12:33:00,83.2,70.7,30.02,East,99,2.0,4.0,66,0.00,,,0.07,Wunderground v.1.15,2013-06-19 17:33:00,
2013-06-19 12:38:00,83.6,71.0,30.02,NE,55,3.0,4.0,66,0.00,,,0.07,Wunderground v.1.15,2013-06-19 17:38:00,
2013-06-19 12:43:00,84.0,70.5,30.02,SW,226,2.0,3.0,64,0.00,,,0.07,Wunderground v.1.15,2013-06-19 17:43:00,
2013-06-19 12:48:00,84.2,71.2,30.02,East,89,2.0,4.0,65,0.00,,,0.07,Wunderground v.1.15,2013-06-19 17:48:00,
2013-06-19 12:53:00,83.9,71.3,30.02,SSE,160,2.0,3.0,66,0.00,,,0.07,Wunderground v.1.15,2013-06-19 17:53:00,
2013-06-19 12:58:00,83.5,69.6,30.02,SE,139,1.0,7.0,63,0.00,,,0.07,Wunderground v.1.15,2013-06-19 17:58:00,
2013-06-19 13:03:00,83.4,70.4,30.02,ENE,58,1.0,4.0,65,0.00,,,0.07,Wunderground v.1.15,2013-06-19 18:03:00,
2013-06-19 13:08:00,83.6,70.1,30.02,SE,137,2.0,4.0,64,0.00,,,0.07,Wunderground v.1.15,2013-06-19 18:08:00,
2013-06-19 13:13:00,83.9,69.0,30.02,SE,142,0.0,2.0,61,0.00,,,0.07,Wunderground v.1.15,2013-06-19 18:13:00,
2013-06-19 13:18:00,84.8,71.3,30.01,NW,312,0.0,2.0,64,0.00,,,0.07,Wunderground v.1.15,2013-06-19 18:18:00,
2013-06-19 13:23:00,84.7,69.3,30.01,NW,307,3.0,7.0,60,0.00,,,0.07,Wunderground v.1.15,2013-06-19 18:23:00,
2013-06-19 13:28:00,84.4,70.4,30.01,NE,56,2.0,7.0,63,0.00,,,0.07,Wunderground v.1.15,2013-06-19 18:28:00,
2013-06-19 13:33:00,84.7,69.8,30.01,NW,304,4.0,5.0,61,0.00,,,0.07,Wunderground v.1.15,2013-06-19 18:33:00,
2013-06-19 13:38:00,85.1,69.7,30.01,NE,42,2.0,5.0,60,0.00,,,0.07,Wunderground v.1.15,2013-06-19 18:38:00,
2013-06-19 13:43:00,85.4,68.4,30.01,NE,44,2.0,4.0,57,0.00,,,0.07,Wunderground v.1.15,2013-06-19 18:43:00,
2013-06-19 20:56:00,75.2,69.7,30.00,SE,136,0.0,0.0,83,0.00,,,0.07,Wunderground v.1.15,2013-06-20 01:56:00,
2013-06-19 21:02:00,75.1,70.3,30.00,SE,135,0.0,0.0,85,0.00,,,0.07,Wunderground v.1.15,2013-06-20 02:02:00,
2013-06-19 21:07:00,74.9,70.4,30.00,SE,135,0.0,0.0,86,0.00,,,0.07,Wunderground v.1.15,2013-06-20 02:07:00,
2013-06-19 21:11:00,74.6,70.1,30.00,SE,136,0.0,0.0,86,0.00,,,0.07,Wunderground v.1.15,2013-06-20 02:11:00,
2013-06-19 21:17:00,74.3,69.8,30.01,SE,135,0.0,0.0,86,0.00,,,0.07,Wunderground v.1.15,2013-06-20 02:17:00,
2013-06-19 21:22:00,74.0,69.5,30.01,SE,136,0.0,0.0,86,0.00,,,0.07,Wunderground v.1.15,2013-06-20 02:22:00,
2013-06-19 21:27:00,73.7,69.2,30.01,SE,136,0.0,0.0,86,0.00,,,0.07,Wunderground v.1.15,2013-06-20 02:27:00,
2013-06-19 21:32:00,73.4,69.0,30.01,SE,135,0.0,0.0,86,0.00,,,0.07,Wunderground v.1.15,2013-06-20 02:32:00,
2013-06-19 21:37:00,73.3,68.9,30.01,SE,135,0.0,0.0,86,0.00,,,0.07,Wunderground v.1.15,2013-06-20 02:37:00,
2013-06-19 21:42:00,73.1,68.3,30.01,SE,135,0.0,0.0,85,0.00,,,0.07,Wunderground v.1.15,2013-06-20 02:42:00,
2013-06-19 21:47:00,72.7,67.9,30.02,SE,137,0.0,0.0,85,0.00,,,0.07,Wunderground v.1.15,2013-06-20 02:47:00,
2013-06-19 21:52:00,72.4,68.3,30.02,SE,136,0.0,0.0,87,0.00,,,0.07,Wunderground v.1.15,2013-06-20 02:52:00,
2013-06-19 21:57:00,72.4,68.6,30.02,SE,137,0.0,0.0,88,0.00,,,0.07,Wunderground v.1.15,2013-06-20 02:57:00,
2013-06-19 22:02:00,72.1,68.3,30.03,SE,136,0.0,0.0,88,0.00,,,0.07,Wunderground v.1.15,2013-06-20 03:02:00,
2013-06-19 22:07:00,71.9,68.8,30.03,SE,136,0.0,0.0,90,0.00,,,0.07,Wunderground v.1.15,2013-06-20 03:07:00,
2013-06-19 22:12:00,71.7,68.6,30.03,SE,137,0.0,0.0,90,0.00,,,0.07,Wunderground v.1.15,2013-06-20 03:12:00,
2013-06-19 22:17:00,71.6,68.5,30.03,SE,137,0.0,0.0,90,0.00,,,0.07,Wunderground v.1.15,2013-06-20 03:17:00,
2013-06-19 22:22:00,71.4,68.3,30.03,SE,136,0.0,0.0,90,0.00,,,0.07,Wunderground v.1.15,2013-06-20 03:22:00,
2013-06-19 22:27:00,71.3,68.2,30.03,SE,137,0.0,0.0,90,0.00,,,0.07,Wunderground v.1.15,2013-06-20 03:27:00,
2013-06-19 22:31:00,71.2,68.4,30.03,SE,136,0.0,0.0,91,0.00,,,0.07,Wunderground v.1.15,2013-06-20 03:31:00,
2013-06-19 22:36:00,71.2,68.4,30.03,SE,137,0.0,0.0,91,0.00,,,0.07,Wunderground v.1.15,2013-06-20 03:36:00,
2013-06-19 22:41:00,71.2,67.8,30.03,SE,137,0.0,0.0,89,0.00,,,0.07,Wunderground v.1.15,2013-06-20 03:41:00,
2013-06-19 22:46:00,71.2,68.4,30.03,SE,137,0.0,0.0,91,0.00,,,0.07,Wunderground v.1.15,2013-06-20 03:46:00,
2013-06-19 22:51:00,71.1,68.3,30.04,SE,137,0.0,0.0,91,0.00,,,0.07,Wunderground v.1.15,2013-06-20 03:51:00,
2013-06-19 22:56:00,70.9,68.1,30.03,SE,136,0.0,0.0,91,0.00,,,0.07,Wunderground v.1.15,2013-06-20 03:56:00,
2013-06-19 23:01:00,70.7,67.9,30.03,SE,136,0.0,0.0,91,0.00,,,0.07,Wunderground v.1.15,2013-06-20 04:01:00,
2013-06-19 23:06:00,70.5,67.7,30.04,SE,137,0.0,0.0,91,0.00,,,0.07,Wunderground v.1.15,2013-06-20 04:06:00,
2013-06-19 23:11:00,70.5,68.1,30.04,SE,137,0.0,0.0,92,0.00,,,0.07,Wunderground v.1.15,2013-06-20 04:11:00,
2013-06-19 23:16:00,70.5,68.1,30.04,SE,137,0.0,0.0,92,0.00,,,0.07,Wunderground v.1.15,2013-06-20 04:16:00,
2013-06-19 23:21:00,70.5,67.7,30.04,SE,136,0.0,0.0,91,0.00,,,0.07,Wunderground v.1.15,2013-06-20 04:21:00,
2013-06-19 23:26:00,70.4,67.6,30.04,SE,136,0.0,0.0,91,0.00,,,0.07,Wunderground v.1.15,2013-06-20 04:26:00,
2013-06-19 23:31:00,70.3,67.5,30.04,SE,136,0.0,0.0,91,0.00,,,0.07,Wunderground v.1.15,2013-06-20 04:31:00,
2013-06-19 23:36:00,70.1,67.7,30.04,SE,137,0.0,0.0,92,0.00,,,0.07,Wunderground v.1.15,2013-06-20 04:36:00,
2013-06-19 23:41:00,70.0,67.6,30.04,SE,137,0.0,0.0,92,0.00,,,0.07,Wunderground v.1.15,2013-06-20 04:41:00,
2013-06-19 23:46:00,69.9,67.5,30.04,SE,136,0.0,0.0,92,0.00,,,0.07,Wunderground v.1.15,2013-06-20 04:46:00,
2013-06-19 23:51:00,69.8,67.7,30.04,SE,137,0.0,0.0,93,0.00,,,0.07,Wunderground v.1.15,2013-06-20 04:51:00,
2013-06-19 23:56:00,70.0,67.9,30.04,ESE,106,2.0,2.0,93,0.00,,,0.07,Wunderground v.1.15,2013-06-20 04:56:00,